Zurück zum Katalog

STARLINK-11391

AktivKommunikationVLEO
NORAD 62889·PAYLOAD·🇺🇸 United States

Gestartet Feb 4, 2025 von Cape Canaveral Space Force Station

Loading…

Nächste Überflüge (nächste 24 Stunden)

TLE

AktuellSource: CelesTrak SupGP

Epoche: Sep 14, 2026, 22:18 UTC

1 62889C 25024L   26257.92965278 -.00030608  00000+0 -23744-3 0  2574
2 62889  43.0001 120.6038 0001689 261.8282 359.8637 15.70882146    10

Verfolge STARLINK-11391 in Echtzeit mit AllMySat

Download on the App Store